Wind_Speed
17 17 17 16 17 17 19 19 18 17 16 15 14 14 12 11 11 11 9 9 10 11 10 10 9 9 8 8 7 7 6 6 6 6 6 6 6 6 6 6 6 6 7 7 7 8 8 8 8
16 16 16 17 18 18 19 19 18 17 16 15 14 13 12 10 10 10 9 9 10 10 9 9 9 8 8 7 7 6 6 6 6 6 6 5 5 5 5 5 5 5 6 6 7 7 7 8 8
15 15 16 17 18 18 19 19 18 17 16 15 14 14 12 10 10 9 9 9 9 9 9 8 8 8 8 7 7 6 6 6 6 6 5 5 4 4 4 5 5 5 5 5 6 6 7 7 7
14 15 16 16 17 18 19 18 18 17 15 14 14 13 12 11 10 10 9 9 9 8 8 7 7 7 7 7 7 7 6 6 6 6 6 5 5 4 4 4 4 4 4 5 5 5 6 6 6
13 14 15 16 17 18 18 18 17 16 15 15 14 13 12 12 11 10 9 9 8 8 7 7 7 7 7 7 7 7 7 6 6 6 6 5 5 5 4 3 3 3 4 4 5 5 5 6 6
12 13 14 15 15 16 17 18 16 15 15 15 14 14 13 12 11 10 10 9 8 8 7 6 6 7 7 7 7 7 7 6 6 6 5 5 5 5 4 3 3 4 4 4 4 4 5 5 5
11 11 12 14 14 14 15 15 15 16 15 16 15 14 13 13 12 11 10 9 8 7 7 6 6 7 7 6 6 6 6 6 6 5 5 5 5 4 4 4 3 4 4 4 4 4 4 4 4
10 10 11 12 12 14 15 14 14 15 16 16 16 15 15 14 13 12 11 10 9 8 7 7 7 7 7 6 6 6 6 6 6 5 4 4 4 4 4 3 3 3 3 3 3 3 3 4 4
9 9 9 10 11 12 13 14 14 15 16 15 16 16 15 15 14 13 12 11 10 9 8 7 7 7 7 6 6 6 6 6 5 4 4 4 3 3 3 3 2 2 2 2 2 3 3 3 3
7 7 8 9 10 11 12 13 14 14 15 15 15 16 15 15 14 13 12 12 10 10 9 8 7 7 7 6 6 6 6 6 5 4 3 3 3 3 2 1 1 2 2 1 1 2 2 2 2
6 6 7 6 8 9 10 12 13 13 14 15 15 15 15 15 14 13 13 12 11 9 9 8 7 7 7 6 6 6 6 5 4 4 3 3 2 2 2 1 1 1 1 1 1 1 1 2 2
5 5 5 6 7 8 9 11 12 12 13 14 15 15 14 14 14 14 13 13 12 10 9 7 7 7 7 6 5 6 6 5 4 4 4 2 2 2 1 1 1 1 1 0 0 0 0 1 1
5 4 3 5 7 8 10 11 12 12 13 14 15 15 15 14 14 14 14 13 12 10 9 8 7 7 6 6 6 6 5 5 4 3 3 2 2 1 1 1 2 2 2 2 2 2 2 2 2
6 3 3 4 6 8 9 9 11 12 13 14 15 15 14 14 13 13 13 13 13 12 10 9 8 7 7 6 7 7 6 5 4 4 3 3 2 2 2 3 3 3 2 3 3 3 3 3 3
6 4 2 3 5 6 8 9 10 10 12 13 14 15 14 13 13 12 12 13 13 12 11 9 9 8 8 8 8 8 7 6 5 4 4 4 3 3 3 3 4 4 4 4 4 4 4 4 4
7 5 2 1 2 4 7 8 8 10 11 12 14 14 14 13 13 13 12 12 12 12 11 10 9 9 9 8 8 8 8 7 6 6 6 5 4 4 4 4 4 4 5 5 5 5 5 5 6
9 5 4 3 3 6 7 8 7 8 10 11 13 14 13 13 12 12 12 12 11 12 11 10 10 10 9 9 9 9 8 8 7 7 7 6 5 5 5 5 5 5 5 5 6 6 6 7 7
10 7 5 4 3 7 9 8 7 8 9 10 12 13 13 12 12 12 12 13 12 12 11 11 10 10 9 9 9 9 8 8 8 7 8 7 7 6 6 6 6 6 6 6 7 8 8 8 8
12 9 7 5 5 9 10 9 8 8 8 10 11 12 12 12 12 11 11 12 11 11 10 10 10 10 9 9 9 9 9 9 8 7 8 8 7 6 6 6 6 6 6 7 7 8 9 9 9
14 12 10 7 7 9 10 10 8 7 7 9 11 11 11 11 11 10 10 11 11 10 10 10 10 10 10 10 10 10 9 9 9 8 8 8 7 7 6 6 6 6 7 8 8 8 9 9 10
16 14 13 11 10 11 11 10 8 8 8 9 10 11 12 9 10 11 10 10 10 10 11 10 10 10 10 10 10 10 9 9 9 9 9 8 8 7 7 6 7 7 8 9 9 9 9 10 11
17 15 14 13 12 11 10 10 9 9 9 10 10 11 10 10 11 10 8 9 11 11 12 11 10 10 10 10 10 10 10 9 9 9 9 9 9 8 8 7 7 7 8 9 11 10 11 11 12
18 17 16 14 13 12 12 11 10 11 10 11 11 12 11 11 11 10 8 9 10 12 12 12 10 10 11 10 10 10 10 9 9 9 9 9 9 9 8 8 8 9 9 10 11 11 12 12 13
19 19 19 17 14 13 12 13 11 11 11 11 12 12 11 11 11 11 10 10 10 11 12 11 10 11 11 11 10 10 10 10 10 10 10 9 9 9 10 10 10 9 10 10 10 12 12 13 14
22 20 20 18 16 13 12 13 11 11 12 12 12 12 11 11 11 11 10 11 10 11 12 11 11 11 11 11 9 9 10 9 9 9 10 10 10 11 10 10 9 9 9 10 11 12 13 13 14
23 22 21 19 17 14 12 10 9 10 11 11 12 13 12 11 11 11 10 11 11 12 12 12 10 11 11 11 9 9 10 10 9 10 10 10 11 11 10 10 9 9 10 11 12 13 13 13 14
23 23 21 21 20 16 13 10 10 11 11 13 13 13 13 13 12 12 11 10 11 11 11 12 10 10 11 11 11 11 11 11 10 10 10 11 11 11 10 10 10 10 10 11 12 13 13 14 14
23 22 23 24 22 19 15 13 12 11 12 13 13 13 14 13 13 13 12 11 11 11 12 13 10 10 11 12 12 12 12 12 11 11 11 11 11 11 11 11 11 11 11 11 12 13 13 13 14
24 24 24 24 24 22 19 15 13 12 12 12 12 14 15 14 13 12 12 12 12 12 13 13 12 12 12 12 12 12 13 13 12 12 11 11 11 12 11 11 10 10 10 10 11 12 13 14 14
25 24 23 24 24 23 22 19 15 13 14 14 14 14 15 14 14 14 13 13 13 13 13 12 12 13 12 12 12 12 12 12 12 12 12 12 12 12 11 11 10 11 11 11 11 11 11 12 12
Wind_Direction
80 73 67 67 63 59 60 60 58 57 55 51 49 52 53 53 58 62 59 61 68 71 69 66 63 60 56 52 46 42 42 42 42 44 48 56 65 73 79 84 87 90 93 96 100 99 100 99 96
82 73 70 66 59 57 58 57 56 54 53 51 50 51 52 52 55 59 56 59 64 66 65 63 59 55 52 49 44 40 38 39 39 40 43 48 57 67 73 80 86 89 92 94 95 93 96 98 97
84 72 67 59 52 52 53 52 51 50 51 50 51 51 50 50 52 55 51 57 60 60 59 58 55 53 50 48 46 42 38 37 37 37 38 43 52 60 66 76 83 87 88 90 90 89 91 96 95
82 74 63 54 49 50 49 48 47 48 46 47 49 51 47 45 47 49 47 51 56 56 54 52 53 52 49 47 45 42 38 36 36 35 35 39 45 49 57 69 79 84 85 84 84 84 88 91 91
81 76 63 52 48 48 48 45 42 45 43 43 45 47 44 43 44 45 41 43 49 51 51 49 50 49 47 45 43 40 37 35 33 32 31 35 40 43 49 60 68 77 84 82 83 84 86 88 86
83 73 61 51 46 45 46 44 40 38 38 39 42 45 43 43 43 44 43 42 44 46 46 47 48 49 48 45 41 35 33 33 31 30 29 33 36 36 41 53 61 72 77 81 83 83 84 86 86
78 69 58 48 40 39 43 42 41 38 36 35 42 44 42 42 42 40 42 41 41 44 46 45 46 46 45 43 38 34 29 27 24 24 27 31 34 36 42 53 63 66 68 74 80 81 82 85 83
76 66 57 48 39 35 41 40 37 36 33 35 38 38 39 41 41 39 42 41 38 42 44 43 41 40 39 36 32 29 26 23 20 21 26 29 32 37 44 55 63 65 70 73 73 76 81 83 84
80 68 58 43 36 36 36 34 34 32 32 32 35 35 36 39 41 38 39 41 39 40 41 42 40 40 40 37 31 24 22 19 18 21 25 25 32 35 41 56 63 62 64 67 69 78 80 84 92
89 74 63 43 36 36 32 33 33 30 29 29 32 33 33 36 40 40 39 39 40 38 38 37 39 42 41 37 29 25 24 19 21 24 20 19 24 27 25 49 61 58 62 61 68 82 88 102 111
106 82 65 52 38 29 29 35 33 30 30 32 33 31 33 34 38 40 40 39 38 38 40 37 35 36 37 35 29 28 27 22 24 26 23 23 17 12 11 22 22 19 38 50 59 92 101 121 124
113 93 64 46 36 27 24 31 31 28 28 32 34 30 31 32 33 35 37 40 42 42 41 40 36 33 34 30 26 23 17 15 17 20 14 3 351 342 328 342 339 318 295 291 320 194 150 162 165
120 102 74 44 31 27 24 25 25 25 26 29 30 28 30 31 31 32 34 38 40 42 42 43 42 39 41 37 28 18 17 15 10 7 3 348 337 335 305 320 329 318 292 261 247 240 229 211 202
126 118 88 59 38 26 25 22 20 20 24 26 27 26 26 28 30 32 34 36 37 38 40 42 41 39 41 39 32 21 19 15 8 1 342 329 315 291 280 283 293 292 281 257 245 251 236 230 232
148 136 113 58 29 15 12 16 18 16 20 23 22 21 21 23 26 28 30 33 36 38 39 39 37 34 37 39 35 26 21 18 10 357 346 334 318 289 283 282 286 278 269 263 253 252 248 240 240
160 149 168 102 7 350 353 359 6 16 17 17 16 16 16 20 22 25 23 28 33 34 34 35 32 29 30 33 32 26 23 24 21 10 358 348 324 301 290 282 278 276 265 262 257 252 253 251 245
170 166 196 222 292 314 329 338 354 9 12 11 12 13 13 16 18 23 22 20 26 31 30 30 29 27 25 24 21 18 15 11 7 359 351 345 325 305 293 278 269 268 264 260 256 250 248 247 246
188 193 210 243 291 301 311 320 335 355 4 3 6 10 11 12 13 18 21 18 26 29 29 24 20 18 17 16 13 9 6 1 1 354 343 336 323 309 298 287 278 269 262 259 257 252 247 246 245
201 207 214 240 273 291 297 304 319 335 347 354 358 3 6 8 11 14 17 16 17 20 22 18 13 9 8 10 8 5 1 358 354 354 349 344 331 320 306 294 281 265 257 257 255 254 248 244 246
204 208 215 231 261 280 283 287 307 329 333 345 349 353 359 1 6 10 14 12 10 12 11 11 8 4 1 1 360 1 358 357 354 349 345 344 334 328 314 294 286 274 260 260 256 253 250 246 247
208 209 216 230 244 260 274 280 288 308 316 328 339 341 345 354 1 356 358 360 359 360 360 0 0 357 356 352 351 351 349 349 347 341 332 330 323 314 308 301 296 281 268 264 261 255 253 252 251
207 212 221 231 241 250 267 277 286 292 299 311 323 329 340 344 344 346 351 352 351 352 352 351 354 355 354 351 347 347 347 341 339 335 330 325 318 312 301 296 293 286 279 269 260 259 260 261 260
208 212 220 229 237 243 255 270 280 286 291 303 314 324 334 335 337 340 341 345 345 347 344 343 347 352 352 348 343 341 345 343 340 338 334 328 327 321 312 302 296 285 279 272 265 261 264 265 263
214 216 219 225 232 238 246 256 270 289 297 307 319 325 327 326 330 333 332 333 336 341 342 341 347 348 348 347 342 339 342 343 343 338 335 332 329 324 316 305 299 286 274 272 267 267 268 267 264
216 219 222 225 226 227 239 255 272 283 289 300 313 318 317 320 325 328 326 326 333 335 343 346 350 350 346 344 340 335 337 338 339 339 337 335 330 324 315 308 301 290 284 276 273 273 272 270 268
219 222 225 226 225 221 233 256 266 272 281 291 302 308 316 319 322 325 329 327 330 334 336 338 339 345 348 348 347 342 338 335 336 338 337 336 333 328 323 315 310 295 289 285 276 276 276 274 273
219 223 224 226 226 227 235 248 259 271 284 292 297 305 314 318 321 325 327 329 327 328 330 330 331 339 343 346 350 348 345 338 335 336 336 334 332 328 325 321 314 306 294 292 285 281 280 276 273
220 222 224 226 227 228 232 242 260 280 285 290 297 302 306 315 319 322 323 320 321 326 331 332 329 337 339 341 343 342 343 340 337 335 333 332 330 328 325 320 314 309 301 296 292 287 284 282 279
218 221 225 229 230 231 233 239 251 270 280 285 294 298 301 307 312 316 320 316 318 325 330 331 332 333 335 336 338 337 337 336 336 334 329 327 325 326 325 324 320 314 309 303 299 296 289 284 283
220 224 227 229 231 233 235 241 246 258 270 278 286 292 296 305 313 320 317 316 319 322 324 324 324 325 328 330 330 331 331 331 331 331 328 325 323 321 321 322 320 317 316 314 310 303 297 290 286
Height
5917 5916 5916 5916 5916 5915 5913 5913 5912 5912 5911 5910 5910 5910 5910 5909 5909 5911 5908 5906 5905 5905 5905 5904 5904 5904 5904 5903 5903 5903 5902 5902 5902 5901 5900 5900 5899 5899 5898 5898 5898 5897 5897 5897 5896 5896 5896 5896 5896
5919 5918 5919 5918 5917 5917 5916 5915 5915 5914 5914 5913 5912 5912 5911 5910 5909 5909 5908 5907 5906 5906 5906 5906 5905 5905 5905 5905 5904 5904 5904 5903 5903 5902 5902 5901 5901 5900 5900 5899 5899 5899 5898 5898 5898 5898 5898 5898 5898
5921 5921 5922 5920 5919 5919 5918 5917 5917 5916 5916 5915 5915 5914 5913 5911 5910 5910 5909 5908 5907 5907 5907 5907 5907 5906 5906 5906 5906 5905 5905 5904 5904 5903 5903 5902 5902 5901 5901 5900 5900 5900 5899 5899 5899 5899 5899 5899 5899
5923 5923 5923 5922 5921 5920 5920 5919 5919 5918 5918 5917 5917 5916 5915 5913 5912 5911 5910 5909 5909 5909 5908 5908 5908 5908 5907 5907 5907 5906 5906 5906 5905 5904 5904 5903 5903 5902 5902 5901 5901 5901 5901 5900 5900 5900 5900 5900 5900
5925 5925 5924 5923 5922 5922 5922 5922 5921 5921 5920 5919 5918 5917 5916 5914 5912 5912 5911 5910 5910 5910 5910 5909 5909 5909 5908 5908 5908 5907 5907 5906 5906 5906 5905 5904 5904 5904 5903 5903 5902 5902 5902 5902 5901 5901 5901 5901 5901
5928 5926 5926 5925 5925 5925 5924 5924 5923 5923 5921 5920 5919 5918 5917 5915 5914 5913 5912 5911 5911 5911 5911 5910 5910 5909 5909 5909 5909 5908 5908 5907 5907 5906 5906 5905 5905 5904 5904 5904 5903 5903 5903 5902 5902 5902 5902 5902 5902
5930 5928 5927 5927 5927 5927 5927 5926 5926 5925 5923 5922 5920 5920 5918 5916 5915 5914 5913 5912 5912 5911 5911 5911 5911 5910 5910 5909 5909 5909 5908 5908 5907 5907 5906 5906 5905 5905 5905 5904 5904 5904 5903 5903 5903 5903 5903 5903 5903
5930 5930 5929 5929 5929 5929 5928 5928 5928 5926 5925 5923 5922 5921 5920 5918 5916 5915 5915 5914 5913 5912 5912 5912 5911 5911 5910 5910 5909 5909 5908 5908 5907 5907 5907 5906 5906 5905 5905 5905 5905 5904 5904 5904 5904 5904 5904 5904 5904
5932 5933 5931 5931 5931 5930 5930 5930 5929 5928 5927 5925 5923 5922 5921 5920 5918 5916 5916 5915 5914 5913 5912 5912 5912 5911 5911 5910 5910 5909 5909 5908 5908 5907 5907 5906 5906 5906 5906 5905 5905 5905 5905 5905 5905 5905 5905 5905 5904
5933 5934 5933 5933 5933 5932 5931 5931 5930 5929 5928 5927 5925 5923 5922 5921 5919 5918 5917 5916 5915 5914 5913 5912 5912 5912 5911 5911 5910 5909 5909 5908 5908 5907 5907 5906 5906 5906 5906 5906 5905 5905 5905 5905 5905 5905 5905 5905 5905
5934 5935 5934 5934 5934 5933 5933 5933 5932 5930 5930 5928 5927 5925 5923 5922 5921 5920 5918 5917 5916 5915 5914 5913 5913 5912 5912 5911 5911 5910 5909 5908 5908 5907 5907 5906 5906 5906 5906 5906 5905 5905 5905 5905 5905 5905 5905 5905 5905
5935 5936 5935 5935 5935 5935 5934 5934 5933 5932 5931 5930 5928 5927 5925 5923 5922 5920 5919 5918 5917 5916 5915 5914 5913 5912 5912 5911 5911 5910 5909 5908 5908 5907 5907 5906 5906 5906 5906 5906 5905 5905 5905 5905 5905 5905 5905 5905 5905
5935 5936 5936 5936 5937 5936 5936 5935 5934 5933 5932 5931 5930 5928 5926 5925 5923 5922 5920 5919 5917 5916 5916 5915 5914 5913 5912 5911 5911 5910 5909 5908 5908 5907 5907 5906 5906 5906 5906 5905 5905 5905 5905 5905 5905 5905 5905 5905 5905
5936 5936 5936 5937 5937 5937 5937 5937 5936 5934 5933 5932 5931 5929 5928 5927 5925 5924 5922 5920 5918 5917 5916 5915 5914 5914 5913 5912 5911 5910 5909 5908 5907 5907 5906 5906 5905 5905 5905 5905 5904 5904 5904 5904 5904 5904 5904 5904 5904
5936 5937 5937 5937 5938 5937 5938 5938 5937 5936 5934 5933 5932 5931 5929 5928 5926 5925 5923 5921 5919 5918 5916 5915 5914 5914 5913 5912 5911 5910 5909 5908 5907 5906 5906 5905 5905 5904 5904 5904 5903 5903 5903 5903 5903 5903 5904 5904 5904
5936 5937 5937 5937 5937 5938 5939 5938 5938 5937 5936 5934 5933 5932 5930 5929 5927 5925 5923 5921 5919 5918 5917 5916 5915 5914 5913 5912 5911 5910 5909 5908 5907 5906 5905 5904 5903 5903 5902 5902 5902 5902 5901 5902 5902 5902 5902 5903 5903
5935 5936 5936 5937 5937 5937 5937 5937 5937 5937 5936 5935 5934 5933 5931 5930 5928 5926 5924 5921 5919 5919 5918 5916 5915 5914 5913 5912 5911 5909 5908 5907 5906 5905 5904 5903 5902 5901 5901 5900 5900 5900 5900 5900 5900 5901 5901 5901 5902
5934 5935 5935 5936 5936 5937 5937 5937 5937 5936 5936 5935 5934 5933 5932 5930 5929 5927 5924 5922 5920 5919 5919 5917 5916 5914 5913 5912 5910 5909 5907 5906 5905 5904 5903 5902 5901 5900 5899 5898 5898 5898 5898 5898 5899 5899 5899 5900 5900
5932 5933 5934 5935 5935 5936 5936 5936 5936 5935 5935 5934 5934 5933 5932 5931 5929 5927 5925 5924 5922 5921 5919 5918 5916 5915 5913 5911 5910 5908 5906 5905 5904 5903 5902 5900 5899 5898 5897 5897 5896 5896 5896 5896 5897 5897 5897 5897 5898
5930 5932 5932 5934 5934 5934 5934 5935 5935 5934 5934 5934 5933 5933 5932 5931 5929 5927 5926 5924 5923 5921 5919 5918 5916 5915 5913 5911 5909 5908 5906 5904 5903 5901 5900 5899 5898 5897 5896 5895 5894 5894 5894 5895 5895 5895 5895 5895 5895
5928 5930 5931 5932 5932 5933 5933 5933 5933 5933 5933 5933 5932 5932 5931 5930 5929 5927 5926 5924 5923 5921 5920 5918 5916 5914 5912 5911 5909 5907 5905 5903 5902 5900 5899 5897 5896 5895 5894 5893 5893 5892 5892 5892 5893 5893 5893 5893 5893
5926 5928 5929 5929 5930 5931 5932 5931 5932 5932 5931 5931 5931 5931 5930 5930 5928 5926 5925 5924 5922 5920 5919 5916 5914 5913 5911 5909 5907 5905 5903 5902 5900 5899 5897 5896 5894 5892 5892 5891 5891 5890 5890 5890 5890 5890 5890 5890 5891
5923 5925 5926 5927 5928 5929 5930 5930 5931 5930 5929 5929 5929 5929 5929 5928 5926 5925 5923 5923 5921 5919 5918 5916 5913 5911 5909 5908 5906 5904 5902 5900 5899 5897 5896 5894 5892 5891 5890 5889 5888 5888 5887 5887 5887 5887 5887 5887 5887
5919 5922 5923 5924 5925 5927 5928 5928 5929 5928 5927 5927 5928 5928 5928 5927 5926 5924 5922 5921 5920 5918 5916 5913 5911 5909 5907 5906 5905 5903 5901 5899 5897 5896 5894 5892 5890 5889 5887 5886 5885 5884 5884 5884 5884 5884 5884 5884 5884
5915 5918 5920 5921 5923 5925 5926 5926 5928 5927 5926 5926 5926 5926 5925 5925 5924 5923 5921 5920 5919 5917 5914 5913 5910 5908 5906 5905 5903 5902 5900 5898 5896 5894 5893 5890 5888 5887 5885 5883 5882 5882 5881 5881 5881 5880 5880 5880 5880
5911 5914 5917 5919 5920 5922 5923 5923 5925 5924 5923 5923 5923 5924 5923 5923 5923 5921 5920 5919 5917 5915 5914 5912 5910 5907 5905 5903 5901 5900 5898 5896 5894 5893 5891 5889 5887 5885 5883 5881 5880 5879 5878 5878 5878 5877 5876 5876 5876
5907 5910 5913 5915 5916 5918 5919 5921 5921 5922 5921 5922 5922 5922 5921 5921 5920 5919 5918 5917 5915 5914 5912 5910 5907 5906 5904 5902 5900 5898 5896 5894 5893 5891 5889 5887 5885 5883 5882 5880 5878 5877 5876 5875 5874 5874 5873 5872 5871
5904 5906 5908 5910 5912 5914 5916 5917 5918 5918 5919 5919 5920 5919 5919 5918 5918 5917 5916 5914 5913 5912 5910 5907 5904 5904 5903 5901 5899 5897 5895 5893 5891 5889 5887 5885 5883 5881 5879 5877 5876 5875 5873 5872 5871 5870 5869 5868 5867
5899 5902 5904 5906 5908 5911 5912 5916 5915 5915 5916 5916 5917 5917 5916 5915 5915 5914 5913 5912 5910 5908 5907 5906 5904 5902 5901 5899 5897 5895 5893 5891 5889 5887 5885 5883 5880 5879 5877 5875 5873 5872 5870 5869 5868 5866 5866 5864 5863
5893 5897 5900 5902 5905 5907 5909 5913 5912 5913 5912 5913 5913 5914 5913 5913 5911 5911 5911 5909 5908 5907 5906 5904 5902 5901 5899 5897 5895 5893 5891 5889 5886 5884 5882 5880 5878 5876 5874 5873 5871 5869 5868 5866 5865 5863 5862 5861 5859